GW6819 Weather Reports


Display with metric or nautical units.
time (UTC)temp
F
wind
direction
speed
MPH
gust
MPH
rain 1hr
in
rain 24hr
in
rain mn
in
humidity
%
barometer
mb
20260510172931 53 14 6.0 24.0 0.00 0.00 0.00 56 1014.8
20260510172031 53 16 5.0 24.0 0.00 0.00 0.00 56 1014.7
20260510171132 53 28 5.0 20.0 0.00 0.00 0.00 56 1014.9
20260510170231 53 6 6.0 22.0 0.00 0.00 0.00 55 1015.0
20260510165332 54 13 6.0 22.0 0.00 0.00 0.00 53 1015.0
20260510164432 54 347 5.0 28.0 0.00 0.00 0.00 53 1015.1
20260510163533 55 343 5.0 16.0 0.00 0.00 0.00 53 1015.1
20260510162631 55 8 6.0 18.0 0.00 0.00 0.00 53 1015.2
20260510161731 54 337 6.0 24.0 0.00 0.00 0.00 53 1015.4
20260510160831 55 335 6.0 24.0 0.00 0.00 0.00 54 1015.3
20260510155931 55 336 7.0 26.0 0.00 0.00 0.00 53 1015.5
20260510155031 55 11 8.0 28.0 0.00 0.00 0.00 54 1015.4
20260510154132 56 5 6.0 26.0 0.00 0.00 0.00 53 1015.6
20260510153234 58 16 5.0 18.0 0.00 0.00 0.00 51 1015.6
20260510152333 56 357 8.0 26.0 0.00 0.00 0.00 52 1015.7
20260510151432 56 16 6.0 26.0 0.00 0.00 0.00 52 1015.8
20260510150531 56 1 6.0 18.0 0.00 0.00 0.00 53 1015.8
20260510145631 56 353 6.0 22.0 0.00 0.00 0.00 54 1016.0
20260510144733 56 359 6.0 30.0 0.00 0.00 0.00 53 1016.0
20260510143831 56 357 7.0 26.0 0.00 0.00 0.00 52 1016.1
20260510142931 56 340 6.0 22.0 0.00 0.00 0.00 52 1016.1
20260510142031 56 352 6.0 20.0 0.00 0.00 0.00 53 1016.3
20260510141131 57 12 6.0 28.0 0.00 0.00 0.00 53 1016.4
20260510135331 56 339 7.0 18.0 0.00 0.00 0.00 55 1016.5
20260510134432 57 350 6.0 20.0 0.00 0.00 0.00 55 1016.5
20260510133533 57 329 6.0 18.0 0.00 0.00 0.00 54 1016.4
20260510132632 57 348 8.0 24.0 0.00 0.00 0.00 54 1016.5
20260510130832 55 336 8.0 22.0 0.00 0.00 0.00 59 1016.6
20260510125931 55 359 6.0 22.0 0.00 0.00 0.00 59 1016.7
20260510125031 55 355 7.0 24.0 0.00 0.00 0.00 59 1016.8
20260510123231 54 326 9.0 26.0 0.00 0.00 0.00 61 1017.0
20260510122331 55 326 8.0 30.0 0.00 0.00 0.00 60 1017.1
20260510121431 55 350 8.0 24.0 0.00 0.00 0.00 59 1017.2
20260510120532 56 356 6.0 24.0 0.00 0.00 0.00 58 1017.1
20260510114732 56 356 6.0 28.0 0.00 0.00 0.00 61 1017.4
20260510113831 56 347 7.0 22.0 0.00 0.00 0.00 59 1017.5
20260510112031 54 335 7.0 20.0 0.00 0.00 0.00 63 1017.6
20260510111131 54 323 8.0 26.0 0.00 0.00 0.00 65 1017.7
20260510110233 54 311 7.0 20.0 0.00 0.00 0.00 64 1017.8
20260510105333 54 343 8.0 22.0 0.00 0.00 0.00 65 1017.8
20260510104431 53 317 9.0 20.0 0.00 0.00 0.00 66 1017.9
20260510103531 53 333 9.0 22.0 0.00 0.00 0.00 67 1018.0
20260510102632 52 345 8.0 28.0 0.00 0.00 0.00 70 1018.1
20260510101731 52 351 7.0 30.0 0.00 0.00 0.00 72 1018.1
20260510095931 51 329 8.0 30.0 0.00 0.00 0.00 73 1018.3
20260510095031 51 321 8.0 34.0 0.00 0.00 0.00 74 1018.3
20260510094131 51 316 8.0 18.0 0.00 0.00 0.00 75 1018.2
20260510093231 51 354 8.0 34.0 0.00 0.00 0.00 77 1018.3
20260510092332 50 344 6.0 28.0 0.00 0.00 0.00 78 1018.3
20260510091432 50 315 6.0 16.0 0.00 0.00 0.00 79 1018.3
20260510090531 50 324 6.0 16.0 0.00 0.00 0.00 79 1018.4
20260510085631 50 320 5.0 22.0 0.00 0.00 0.00 79 1018.5
20260510084732 50 357 6.0 24.0 0.00 0.00 0.00 80 1018.6
20260510083834 50 336 6.0 24.0 0.00 0.00 0.00 80 1018.5
20260510082931 50 326 5.0 16.0 0.00 0.00 0.00 78 1018.6
20260510082031 50 353 5.0 22.0 0.00 0.00 0.00 79 1018.5
20260510081133 49 4 6.0 28.0 0.00 0.00 0.00 79 1018.5
20260510080231 49 336 6.0 28.0 0.00 0.00 0.00 80 1018.6
20260510075331 49 314 6.0 20.0 0.00 0.00 0.00 80 1018.5
20260510074431 49 345 5.0 20.0 0.00 0.00 0.00 81 1018.5
20260510073531 48 320 4.0 16.0 0.00 0.00 0.00 81 1018.5
20260510072632 48 348 5.0 20.0 0.00 0.00 0.00 81 1018.5
20260510070831 48 333 7.0 18.0 0.00 0.00 0.00 83 1018.4
20260509222620 50 335 4.0 26.0 0.00 0.00 0.00 81 1018.7
20260509221720 50 345 2.0 16.0 0.00 0.00 0.00 80 1018.8
20260509220820 50 343 2.0 16.0 0.00 0.00 0.00 79 1018.7
20260509215920 51 347 3.0 16.0 0.00 0.00 0.00 78 1018.6
20260509214120 51 326 4.0 12.0 0.00 0.00 0.00 76 1018.3
20260509213220 52 317 2.0 12.0 0.00 0.00 0.00 74 1018.2
20260509212320 52 335 4.0 14.0 0.00 0.00 0.00 70 1018.0
20260509210520 53 10 4.0 20.0 0.00 0.00 0.00 64 1018.0
20260509205620 53 337 3.0 16.0 0.00 0.00 0.00 61 1017.9
20260509204722 54 345 3.0 16.0 0.00 0.00 0.00 59 1017.8
20260509203820 54 343 4.0 18.0 0.00 0.00 0.00 61 1017.8
20260509202020 56 311 3.0 12.0 0.00 0.00 0.00 59 1017.7
20260509201121 56 345 2.0 20.0 0.00 0.00 0.00 55 1017.6
20260509200221 57 1 2.0 12.0 0.00 0.00 0.00 51 1017.6
20260509195320 57 21 2.0 14.0 0.00 0.00 0.00 50 1017.3
20260509194421 58 20 2.0 12.0 0.00 0.00 0.00 49 1017.2
20260509193521 58 20 2.0 14.0 0.00 0.00 0.00 49 1017.0
20260509192620 59 14 2.0 12.0 0.00 0.00 0.00 48 1016.9
20260509191721 60 22 4.0 18.0 0.00 0.00 0.00 48 1016.9
20260509190820 60 17 2.0 14.0 0.00 0.00 0.00 47 1016.8
20260509185920 61 4 2.0 14.0 0.00 0.00 0.00 46 1016.8
20260509185020 61 354 2.0 12.0 0.00 0.00 0.00 47 1016.7
20260509184120 62 16 2.0 18.0 0.00 0.00 0.00 48 1016.6
20260509183220 62 2 2.0 12.0 0.00 0.00 0.00 47 1016.5
20260509182320 62 356 3.0 18.0 0.00 0.00 0.00 47 1016.4
20260509181420 63 8 4.0 16.0 0.00 0.00 0.00 46 1016.2
20260509180520 63 2 4.0 16.0 0.00 0.00 0.00 45 1016.2
20260509174721 64 356 5.0 20.0 0.00 0.00 0.00 44 1016.2
20260509173820 65 10 4.0 22.0 0.00 0.00 0.00 42 1016.2